MDT,Max TemperatureF,Mean TemperatureF,Min TemperatureF,Max Dew PointF,MeanDew PointF,Min DewpointF,Max Humidity, Mean Humidity, Min Humidity, Max Sea Level PressureIn, Mean Sea Level PressureIn, Min Sea Level PressureIn, Max VisibilityMiles, Mean VisibilityMiles, Min VisibilityMiles, Max Wind SpeedMPH, Mean Wind SpeedMPH, Max Gust SpeedMPH,PrecipitationIn, CloudCover, Events, WindDirDegrees
2012-10-1,80,63,46,43,35,28,71,37,18,30.28,30.21,30.15,10,10,10,15,8,20,0.00,0,,221
2012-10-2,84,66,48,41,33,25,71,33,12,30.24,30.16,30.06,10,10,10,22,9,29,0.00,0,,322
2012-10-3,84,68,53,32,27,23,41,22,11,30.23,30.16,30.12,10,10,10,25,13,33,0.00,0,,313
2012-10-4,82,66,51,32,29,27,41,24,14,30.32,30.26,30.22,10,10,10,17,11,29,0.00,0,,311
2012-10-5,80,65,50,36,26,14,50,26,8,30.25,30.20,30.13,10,10,7,20,13,29,0.00,0,,308
2012-10-6,78,64,51,27,24,16,38,21,10,30.18,30.11,30.05,10,10,10,18,11,26,0.00,0,,301
2012-10-7,75,62,50,37,32,27,51,34,17,30.19,30.12,30.07,10,10,10,12,7,18,0.00,0,,244
2012-10-8,78,62,46,37,31,27,57,36,16,30.21,30.15,30.09,10,10,10,20,7,26,0.00,0,,326
2012-10-9,78,63,48,36,28,23,50,27,14,30.20,30.15,30.09,10,10,10,14,10,25,0.00,0,,309
2012-10-10,78,63,48,30,27,23,41,25,15,30.22,30.15,30.09,10,10,10,13,8,24,0.00,0,,135
2012-10-11,73,60,48,45,36,28,62,41,19,30.21,30.15,30.12,10,10,9,14,7,20,0.00,2,Rain,66
2012-10-12,75,63,51,48,39,16,82,46,13,30.19,30.13,30.07,10,10,10,28,9,46,0.00,2,Rain-Thunderstorm,215
2012-10-13,69,53,37,32,26,18,70,36,16,30.24,30.17,30.13,10,10,9,22,13,28,0.00,0,,312
2012-10-14,73,56,39,28,27,25,56,33,19,30.34,30.28,30.23,10,10,10,20,9,24,0.00,0,,81
2012-10-15,73,56,39,32,27,23,61,34,19,30.29,30.21,30.12,10,10,10,13,7,20,0.00,0,,52
2012-10-16,78,61,44,25,20,12,43,22,9,30.12,30.05,29.98,10,10,10,16,9,23,0.00,0,,310
2012-10-17,80,62,44,30,25,18,37,24,14,30.11,30.03,29.98,10,10,10,26,12,34,0.00,0,,303
2012-10-18,80,65,50,32,27,21,47,25,11,30.20,30.14,30.08,10,10,5,23,14,28,0.00,0,,317
2012-10-19,80,62,44,23,16,14,29,19,10,30.19,30.12,30.05,10,10,10,14,9,,0.00,0,,315
2012-10-20,80,65,50,32,26,18,38,24,13,30.08,30.02,29.97,10,10,10,16,10,25,0.00,0,,303
2012-10-21,75,60,46,39,34,30,62,40,20,30.11,30.05,30.02,10,10,10,16,10,23,0.00,0,,289
2012-10-22,73,58,44,36,31,28,61,37,19,30.14,30.09,30.05,10,10,10,18,9,25,0.00,0,,317
2012-10-23,77,62,46,32,28,23,50,30,13,30.12,30.07,30.04,10,10,10,16,9,24,0.00,0,,316
2012-10-24,75,60,46,36,29,23,50,31,15,30.07,30.03,29.98,10,10,7,25,11,34,0.00,0,,309
2012-10-25,71,54,37,23,12,0,49,21,7,30.14,30.09,30.05,10,10,10,18,10,22,0.00,0,,316
2012-10-26,64,48,32,25,13,5,56,24,14,30.26,30.19,30.12,10,10,9,17,9,26,0.00,0,,100
2012-10-27,62,44,26,28,24,18,69,47,26,30.27,30.21,30.12,10,10,8,10,6,,0.00,0,,105
2012-10-28,71,52,32,28,23,18,60,36,16,30.26,30.21,30.16,10,10,10,12,8,16,0.00,0,,22
2012-10-29,75,56,37,18,13,7,41,21,7,30.30,30.24,30.18,10,10,10,20,10,24,0.00,0,,320
2012-10-30,75,58,41,16,11,5,31,17,7,30.26,30.20,30.14,10,10,10,18,11,28,0.00,0,,318
2012-10-31,75,57,39,16,10,5,31,17,8,30.24,30.19,30.14,10,10,4,13,9,20,0.00,0,,329